{"data":{"norad_id":50806,"intl_designator":"2022-001D","name":"STARLINK-3335","alt_names":[],"object_type":"PAYLOAD","status":"ACTIVE","operator":null,"country":"US","launch_date":"2022-01-06","launch_site_code":"AFETR","launch_vehicle":null,"mission":null,"orbit_class":"UNKNOWN","rcs_meters":null,"size_class":null,"mass_kg":null,"dimensions":null,"purposes":["comms"],"wikipedia_slug":null,"has_3d_model":false,"image_url":null,"decayed_at":null,"tle_current":{"epoch":"2026-05-25T02:56:34.774944Z","epoch_age_seconds":57831,"freshness":"FRESH","line1":"1 50806U 22001D   26145.12262471 -.00001530  00000+0 -78105-4 0  9992","line2":"2 50806  53.2127 176.0015 0001362  84.2455 275.8692 15.08824184242087","mean_motion":15.08824184,"eccentricity":0.0001362,"inclination_deg":53.2127,"raan_deg":176.0015,"arg_perigee_deg":84.2455,"mean_anomaly_deg":275.8692,"bstar":-7.8105e-5,"rev_number":24208,"period_min":95.43855508615,"perigee_km":538.84951067773,"apogee_km":540.73395446448,"semimajor_km":6917.9287325711,"source":"CELESTRAK","updated_at":"2026-05-25T13:38:16.874801Z"}}}